Info for pilots

Image

Airfield Info:

EBUL
N51 08.7 - E003 28.6
ELEV 95' / 29m
RWY 07 / 25
799m * 45m (CIV) - 2980m (MIL)
Ursel Radio 135.130
Tel Aero Club Brugge : +32(0)9 374 25 75
Tel Vliegclub Ursel : +32(0)9 374 12 90

Operational Hours
FRI: 14h00LT - SS+30 MIN
SAT, SUN and HOL: TKOF and LDG: 10h00LT - SS+30 MIN
After 20h00LT to SS+30 MIN: only LDG allowed (PN)

Local Traffic Regulations
The use of the AD is subject to PPR from the OPR;
AD given in concession to the CIV club outside MIL ACT;
Solo training flights can only be performed after two reconnaissance flights with instructor. The solo training flight must be performed within six weeks after the first reconnaissance flight;
Jet aircraft operations not allowed.

Obstacles:
trees between 10M AGL and 22M AGL, caution when crosswind:
North of the RWY, 75M from CL, along the whole length of the RWY;
South of the RWY, 75M from CL, and at THR RWY 25 from THR RWY 07 to 140M east of THR RWY 07



Image

Image

Watch out!

Flight Procedures
RWY 07 and 25 left hand circuit, 1.200 FT QNH

Image

Taxi procedures:
RWY 07 (TKOF):
taxi on the north side of the RWY to the HLDG position of RWY 07

RWY 07 (LDG):
after landing roll out to the second intersection (THR RWY 25), turn left, turn left again, taxi via the TWY to the first intersection, turn left, cross the RWY (check for landing ACFT), taxi on the south side of the RWY to the AD reporting office

RWY 25 (TKOF):
taxi on the north side of the first intersection, turn left, next turn right, taxi via the TWY to the second intersection, turn right, taxi to the HLDG of RWY 25

RWY 25 (LDG):
after landing roll out to the end of the RWY, taxi on the south side of the RWY to the AD reporting office.





Image

Taxi & Circuit?

Image
Image
Image
Image

Current Metars - Auto refresh

EBOS - Oostende
2020/11/29 20:20 EBOS 292020Z 12003KT 050V190 2500 BR BKN004 02/01 Q1028 TEMPO 1400 BR


EBAW - Antwerpen
2020/11/29 20:20 EBAW 292020Z 04002KT 5000 BR SCT013 01/M01 Q1027 BECMG 3500 BR


EBBR - Brussel
2020/11/29 20:20 EBBR 292020Z 07001KT 4500 BR FEW017 00/M01 Q1027 NOSIG

Source : NOAA.GOV

Current TAFs - Auto refresh

EBOS - Oostende
2020/11/29 18:27 TAF EBOS 291710Z 2918/3024 07005KT 0800 FG BKN002 TEMPO 3021/3007 0400 BKN001 BECMG 3010/3012 27012KT 6000 BR BKN010 TEMPO 3018/3024 4000 -RADZ

EBAW - Antwerpen
2020/11/29 21:28 TAF EBAW 292015Z 2921/3006 VRB03KT 4500 BR NSC PROB40 2923/3006 1200 MIFG PROB30 3001/3006 0400 FZFG

EBBR - Brussel
2020/11/29 18:27 TAF TAF EBBR 291710Z 2918/3024 07005KT 7000 BKN014 BECMG 2921/2923 3500 BR PROB30 TEMPO 3002/3007 0400 FZFG BKN001 BECMG 3008/3010 7000 NSW BECMG 3016/3018 22011KT TEMPO 3018/3024 4000 -RADZ BKN009

Source : NOAA.GOV
Image

Webcam

Direction runway 07 :